User: anonymous
Location: Trondheim
(63.4170°N, 10.4170°E)
Time: 06:29:16
(UTC+02:00)
Language:

Iridium 82 - Orbit

View from above orbital plane
View from above orbital plane
View from above satellite
View from above satellite

Ground track
Ground track

The orbit data is extracted from the following two-line orbital elements,

1 25467U 98051A   14213.25054460  .00000038  00000-0  66326-5 0    06
2 25467 086.3974 101.3862 0002529 099.9973 260.1509 14.34216967835987
Epoch (UTC): 01 August 2014 06:00:47
Eccentricity: 0.0002529
inclination: 86.3974°
perigee height: 776 km
apogee height: 779 km
right ascension of ascending node: 101.3862°
argument of perigee: 99.9973°
revolutions per day: 14.34216967
mean anomaly at epoch: 260.1509°
orbit number at epoch: 83598

The dashed part of the orbit path shows where the satellite is in the earth's shadow,  

DLR